Regional Weather Roundup
Issued by NWS

Home | Current Version | Previous Version | Text Only | Print | Product List | Glossary On
Versions: 1 2 3 4 5 6 7 8 9 10 11 12 13 14 15 16 17 18 19 20 21 22 23 24 25 26 27 28 29 30 31 32 33 34 35 36 37 38 39 40 41 42 43 44 45 46 47 48 49 50
000
ASUS43 KMKX 281000
RWRWI

WISCONSIN REGIONAL WEATHER ROUNDUP
NATIONAL WEATHER SERVICE MILWAUKEE/SULLIVAN WI
500 AM CDT SUN AUG 28 2016

NOTE: "FAIR" INDICATES FEW OR NO CLOUDS BELOW 12,000 FEET WITH NO
SIGNIFICANT WEATHER AND/OR OBSTRUCTIONS TO VISIBILITY.

WIZ001-002-006>008-014>016-023>028-281100-
NORTHWEST WISCONSIN

CITY           SKY/WX    TMP DP  RH WIND       PRES   REMARKS
SUPERIOR ARPT  FOG       57  57 100 CALM      30.11R VSB 1
ASHLAND        CLOUDY    60  60 100 SW5       30.13R FOG
HAYWARD        CLOUDY    62  60  93 SW6       30.15R
SIREN          CLOUDY    61  60  97 CALM      30.13R FOG
CUMBERLAND     FOG       59  57  94 SW3       30.14R VSB 1/4
RICE LAKE      FOG       60  59  96 CALM      30.15R VSB<1/4
CHETEK         NOT AVBL
LADYSMITH      PTCLDY    61  60  96 CALM      30.15S FOG
EAU CLAIRE     NOT AVBL
MENOMONIE      FOG       61  61 100 CALM      30.14R VSB 1/4
NEW RICHMOND   FOG       61  61 100 E3        30.13R VSB 1/2
OSCEOLA        FOG       61  61 100 CALM      30.15R VSB 1/4
$$

WIZ003>005-009-010-017-018-281100-
NORTH CENTRAL WISCONSIN

CITY           SKY/WX    TMP DP  RH WIND       PRES   REMARKS
MANITOWISH WTR NOT AVBL
ARBOR VITAE    CLOUDY    62  60  95 CALM      30.14R
WOODRUFF       CLOUDY    62  60  95 CALM      30.14R
RHINELANDER    CLOUDY    63  63 100 W5        30.15R
EAGLE RIVER    PTCLDY    60  60 100 W5        30.13R
LAND O LAKES   CLOUDY    62  61  97 W3        30.14R
PHILLIPS       MOCLDY    60  60 100 CALM      30.14R
TOMAHAWK       PTCLDY    59  58  95 CALM      30.14S FOG
MEDFORD        CLOUDY    60  60 100 CALM      30.14R FOG
MERRILL        MOCLDY    60  60 100 CALM      30.15R
$$

WIZ029-030-035-036-043>047-281100-
CENTRAL WISCONSIN

CITY           SKY/WX    TMP DP  RH WIND       PRES   REMARKS
WAUSAU         MOCLDY    62  60  93 W5        30.14R
MOSINEE        PTCLDY    61  61 100 W5        30.16R
MARSHFIELD     FOG       63  60  90 CALM      30.15R VSB 1/4
STEVENS POINT  CLOUDY    62  62  99 CALM      30.15R
WAUPACA        CLOUDY    64  64  97 CALM      30.15R FOG
WAUTOMA        CLOUDY    65  64  97 W6        30.15R
WISC RAPIDS    LGT RAIN  65  65 100 NW6       30.16R FOG
CAMP DOUGLAS   NOT AVBL
$$

WIZ011>013-019>022-031-037>040-048>050-281100-
NORTHEAST WISCONSIN

CITY           SKY/WX    TMP DP  RH WIND       PRES   REMARKS
ANTIGO         MOCLDY    61  61  99 W5        30.15R
SHAWANO        CLOUDY    65  63  94 W3        30.14R
OCONTO         NOT AVBL
STURGEON BAY   CLOUDY    64  63  96 W3        30.15R
GREEN BAY      CLOUDY    63  63 100 MISG      30.15R
MANITOWOC      FOG       64  63  94 MISG      30.15R VSB 3/4
APPLETON       CLOUDY    63  63 100 CALM      30.13R
CLINTONVILLE   CLOUDY    63  61  94 S3        30.14R FOG
OSHKOSH        CLOUDY    63  63 100 NW6       30.15R FOG
$$

WIZ032>034-041-042-053>061-281100-
SOUTHWEST WISCONSIN

CITY           SKY/WX    TMP DP  RH WIND       PRES   REMARKS
LA CROSSE      CLOUDY    67  67 100 S5        30.12R FOG
SPARTA         FOG       64  64 100 CALM      30.14S VSB 3/4
VIROQUA        CLOUDY    63  63 100 CALM      30.14S VSB<1/4
BOSCOBEL       FOG       63  63 100 CALM      30.13S VSB 1/4
PRAIRIE DU CHI FOG       63  61  96 E3        30.12S VSB 1/2
PLATTEVILLE      N/A     62  62 100 SE5       30.14S VSB 1/2
$$

WIZ056-057-062-063-064-067-068-281100-
SOUTH CENTRAL WISCONSIN

CITY           SKY/WX    TMP DP  RH WIND       PRES   REMARKS
REEDSBURG      NOT AVBL
BARABOO/DELLS  FOG       60  59  96 CALM      30.14R VSB 1/4
LONE ROCK      NOT AVBL
MINERAL POINT  FOG       63  63 100 SE3       30.14S VSB 3/4
MADISON        FOG       65  65 100 CALM      30.14R VSB 1/4
MIDDLETON      CLOUDY    60  60 100 CALM      30.14S VSB 1/2
WATERTOWN      FOG       63  63 100 CALM      30.14S VSB 1/4
MONROE         PTCLDY    68  66  94 SE3       30.15R FOG
JANESVILLE     FOG       66  64  94 CALM      30.13S VSB 3/4
$$

WIZ051-052-058>065-066-070>072-281100-
SOUTHEAST WISCONSIN

CITY           SKY/WX    TMP DP  RH WIND       PRES   REMARKS
MILWAUKEE      PTCLDY    65  63  93 CALM      30.14R FOG
WAUKESHA       FOG       61  61 100 CALM      30.16R VSB 1/2
MILWAUKEE/TIMM CLEAR     63  61  94 CALM      30.14S FOG
RACINE         CLOUDY    67  65  93 CALM      30.16R FOG
BURLINGTON     FOG       63  63  99 CALM      30.14S VSB 1/4
KENOSHA        FOG       66  65  96 CALM      30.15R VSB 1/4
FOND DU LAC    FOG       64  63  96 CALM      30.16R VSB 1/4
SHEBOYGAN      CLOUDY    63  62  97 W6        30.15R FOG
WEST BEND      FOG       63  63 100 CALM      30.15R VSB 1/2
JUNEAU         FOG       63  63  99 SW3       30.16R VSB<1/4
$$

LSZ147-162-281100-
LAKE SUPERIOR

STATION/POSITION TIME  TEMP    WIND        PRES    WAVE
                       AIR SEA DIR/SP/G            HT/PER
                 (UTC) (F)     (DEG/KT/KT) (MB)    (FT/S)
W MID LAKE BUOY  0850   63 67  270/  8/ 10 1018.4R   1/ 4
DEVILS ISLAND    0900   62     220/  6/  8 1019.4R
PORT WING        0900   57     140/  3/  4 1019.3S
SAXON HARBOR     0900   63     190/  3/  4 1019.3
$$

LMZ867-665-643>646-281100-
LAKE MICHIGAN

STATION/POSITION TIME  TEMP    WIND        PRES    WAVE
                       AIR SEA DIR/SP/G            HT/PER
                 (UTC) (F)     (DEG/KT/KT) (MB)    (FT/S)
CHAMBERS ISLAND  0900   65     220/  5/ 10 1019.3R
S GREEN BAY BUOY 0930   66 71  270/ 10/ 12 1019.8R
N MID LAKE BUOY  0750   67 70  270/ 16/ 17 1017.8R   1/ 4
NORTHPORT PIER   0900   65     270/  3/  6 1019.3R
SISTER BAY       0907   67     320/ 15/ 18   N/A
KEWAUNEE LAKESHO 0900   62      CALM  /  2 1019.4R
SHEBOYGAN LAKESH 0900   64     250/  5/  6 1019.7R
PORT WASHINGTON  0940   62      CALM  /  4 1021.3R
ATWATER BUOY     0900   63     200/  2/  4   N/A
MILWAUKEE LAKESH 0910   64     310/  1/  1   N/A
S MID LAKE BUOY  0750   72 75  350/ 10/ 12 1019.0R   1
KENOSHA   LAKESH 0900   66      CALM  /  4 1020.3R
$$

TC  - TEMPERATURE IN CELSIUS
VSB - VISIBILITY IN STATUTE MILES
WCI - WIND CHILL INDEX
HX  - HEAT INDEX





USA.gov is the U.S. government's official web portal to all federal, state and local government web resources and services.